Prescott, AZ

9:14 PM MST on November 11, 2019 (GMT -0700)
Love

Weather History for KPRC - September, 2019

Change the Weather History Date:

Thursday, September 26, 2019

  Actual Average Record
Temperature  
Mean Temperature 60 °F 64 °F  
Max Temperature 67 °F 79 °F 91 °F (1956)
Min Temperature 53 °F 49 °F 35 °F (1970)
Degree Days  
Heating Degree Days 5    
Month to date heating degree days 18  
Since 1 July heating degree days 18  
Cooling Degree Days 0    
Month to date cooling degree days 155  
Year to date cooling degree days 1130  
Growing Degree Days 10 (Base 50)    
Moisture  
Dew Point 54 °F    
Average Humidity 84    
Maximum Humidity 97    
Minimum Humidity 58    
Precipitation  
Precipitation 0.56 in 0.05 in 1.69 in (1997)
Month to date precipitation 2.18 1.35  
Year to date precipitation 10.29 11.01  
Sea Level Pressure  
Sea Level Pressure 30.00 in    
Wind  
Wind Speed 5 mph ()    
Max Wind Speed 14 mph    
Max Gust Speed 19 mph    
Visibility 8.2 miles    
Events Rain , Thunderstorm    
T = Trace of Precipitation, MM = Missing Value Source: Averaged Metar Reports

Daily Weather History Graph

Daily Weather History Graph

Search for Another Location

Airport or City:

Astronomy

Sep. 26, 2019 Rise Set
Actual Time 6:20 AM MST 6:20 PM MST
Civil Twilight 5:55 AM MST 6:46 PM MST
Nautical Twilight 5:26 AM MST 7:15 PM MST
Astronomical Twilight 4:56 AM MST 7:44 PM MST
Moon 3:42 AM MST (9/26) 5:28 PM MST (9/26)
Length of Visible Light 12h 50m
Length of Day
12h 00m
Waning Crescent, 6% of the Moon is Illuminated
Sep 26
Waning Crescent
Sep 28
New
Oct 5
First Quarter
Oct 13
Full
Oct 21
Last Quarter

Hourly Weather History & Observations

Time (MST) Temp. Dew Point Humidity Pressure Visibility Wind Dir Wind Speed Gust Speed Precip Events Conditions
12:09 AM 60.1 °F 51.1 °F 72% 30.13 in 10.0 mi WSW 9.2 mph - N/A   Overcast
12:53 AM 59.0 °F 51.1 °F 75% 29.93 in 10.0 mi SSW 9.2 mph - N/A   Mostly Cloudy
1:03 AM 57.9 °F 53.1 °F 84% 30.13 in 1.8 mi South 9.2 mph 17.3 mph 0.14 in Rain Heavy Rain
1:11 AM 57.9 °F 54.0 °F 87% 30.12 in 2.5 mi SSW 5.8 mph 17.3 mph 0.17 in Rain , Thunderstorm Light Thunderstorms and Rain
1:18 AM 57.9 °F 54.0 °F 87% 30.13 in 10.0 mi South 5.8 mph - 0.17 in Thunderstorm Thunderstorm
1:32 AM 57.9 °F 54.0 °F 87% 30.13 in 10.0 mi South 4.6 mph - 0.17 in   Mostly Cloudy
1:53 AM 57.9 °F 55.0 °F 90% 29.92 in 10.0 mi South 3.5 mph - 0.17 in   Mostly Cloudy
2:53 AM 57.0 °F 55.0 °F 93% 29.92 in 10.0 mi Calm Calm - 0.04 in Rain Light Rain
3:53 AM 57.0 °F 54.0 °F 89% 29.91 in 10.0 mi NNW 5.8 mph - 0.00 in   Mostly Cloudy
4:25 AM 55.9 °F 54.0 °F 93% 30.12 in 10.0 mi NW 4.6 mph - N/A Thunderstorm Mostly Cloudy
4:53 AM 55.9 °F 54.0 °F 93% 29.94 in 4.0 mi SW 5.8 mph - 0.03 in Rain Rain
4:58 AM 55.9 °F 54.0 °F 93% 30.13 in 1.8 mi SW 3.5 mph - 0.06 in Rain Heavy Rain
5:07 AM 55.9 °F 54.0 °F 93% 30.13 in 4.0 mi West 5.8 mph - 0.06 in Rain Light Rain
5:53 AM 55.9 °F 55.0 °F 97% 29.95 in 10.0 mi Calm Calm - 0.07 in   Overcast
6:53 AM 57.0 °F 55.9 °F 96% 29.97 in 10.0 mi Calm Calm - 0.04 in   Overcast
7:40 AM 57.0 °F 55.9 °F 96% 30.17 in 1.8 mi South 5.8 mph - 0.06 in Rain Rain
7:49 AM 57.2 °F 55.4 °F 94% 30.18 in 3.0 mi South 6.9 mph - 0.08 in Rain Light Rain
7:53 AM 57.0 °F 55.9 °F 96% 30.00 in 4.0 mi SSW 4.6 mph - 0.09 in Rain Light Rain
8:53 AM 57.0 °F 54.0 °F 89% 30.01 in 10.0 mi SSE 4.6 mph - 0.05 in   Overcast
9:53 AM 62.1 °F 55.9 °F 80% 29.99 in 10.0 mi NNE 8.1 mph - N/A   Overcast
10:53 AM 60.1 °F 54.0 °F 80% 30.01 in 10.0 mi SE 6.9 mph - 0.01 in Rain Light Rain
11:53 AM 61.0 °F 55.9 °F 83% 29.99 in 10.0 mi SSW 4.6 mph - 0.02 in Rain Light Rain
12:53 PM 62.1 °F 55.0 °F 78% 29.97 in 7.0 mi SE 3.5 mph - 0.01 in   Overcast
1:53 PM 66.0 °F 54.0 °F 65% 29.93 in 10.0 mi Variable 6.9 mph - 0.00 in   Scattered Clouds
2:53 PM 62.1 °F 54.0 °F 75% 29.93 in 10.0 mi ESE 4.6 mph - 0.02 in Rain Light Rain
3:53 PM 66.0 °F 55.0 °F 68% 29.90 in 10.0 mi ESE 3.5 mph - 0.01 in   Mostly Cloudy
4:53 PM 66.0 °F 52.0 °F 60% 29.90 in 10.0 mi South 4.6 mph - N/A   Mostly Cloudy
5:53 PM 64.9 °F 52.0 °F 63% 29.90 in 10.0 mi SSW 3.5 mph - N/A   Mostly Cloudy
6:53 PM 62.1 °F 52.0 °F 70% 29.91 in 10.0 mi SW 4.6 mph - N/A   Clear
7:53 PM 60.1 °F 53.1 °F 78% 29.93 in 10.0 mi ESE 4.6 mph - N/A   Partly Cloudy
8:53 PM 57.0 °F 54.0 °F 89% 29.95 in 10.0 mi South 4.6 mph - N/A   Clear
9:53 PM 55.9 °F 53.1 °F 90% 29.93 in 10.0 mi SSW 3.5 mph - N/A   Clear
10:53 PM 55.0 °F 53.1 °F 93% 29.91 in 10.0 mi South 5.8 mph - N/A   Clear
11:53 PM 53.1 °F 51.1 °F 93% 29.91 in 10.0 mi South 4.6 mph - N/A   Clear